Location: Gateway
(26.5776°N, 81.7504°W)
Time: 01:02:14
(UTC+00:00)

Daily predictions for brighter satellites

Satellite Brightness Start Highest point End
(mag) Time Altitude Azimuth Time Altitude Azimuth Time Altitude Azimuth
BREEZE-M DEB (TANK) 2.9 00:00:23 10° NNW 00:03:20 42° NE 00:08:36 12° ESE
Cosmos 1602 Rocket 4.4 00:00:26 10° SSE 00:04:04 27° E 00:04:59 25° ENE
Cosmos 1844 Rocket 2.6 00:00:22 10° SSW 00:06:01 87° ESE 00:11:42 10° NNE
YAOGAN 1 2.7 00:02:40 10° SSE 00:06:48 47° ENE 00:10:56 10° N
Cosmos 1939 Rocket 4.4 00:04:03 10° S 00:07:56 40° W 00:11:50 10° NNW
IRS-1C Rocket 4.0 00:05:33 10° SSE 00:10:48 89° ENE 00:16:05 10° NNW
CZ-4 R/B 1.3 00:10:23 10° SSE 00:14:33 75° ENE 00:18:40 10° N
Abrixas rocket 4.3 00:12:30 10° NNW 00:12:50 12° N 00:12:50 12° N
BREEZE-M DEB (TANK) 4.2 00:11:55 10° NW 00:15:49 85° NE 00:33:16 10° SE
Cosmos 1703 3.4 00:14:57 10° SSE 00:18:42 47° E 00:19:18 42° ENE
Meteor 2-1 Rocket 4.4 00:15:21 10° N 00:20:35 43° E 00:25:46 10° SSE
SWIFT 3.5 00:17:06 10° WSW 00:21:00 34° S 00:22:36 25° SE
Iridium 4 Rocket 4.3 00:22:10 30° ESE 00:22:10 30° ESE 00:25:54 10° SSE
Cosmos 1092 Rocket 3.9 00:17:09 10° S 00:23:18 62° E 00:29:24 10° NNE
GOES 2 Rocket 4.4 00:18:21 10° WSW 00:25:18 88° SSE 00:30:06 31° E
COSMOS 2455 4.4 00:20:26 10° SW 00:25:46 33° WNW 00:31:07 10° N
Cosmos 1603 4.4 00:20:56 10° NNW 00:26:33 58° WSW 00:32:08 10° S
CZ-2C R/B 3.7 00:22:38 10° S 00:27:32 56° W 00:32:43 10° NNW
GEOS 3 Rocket 4.2 00:28:03 34° ESE 00:28:36 35° ESE 00:33:17 10° S
CSL-04 Rocket 3.7 00:24:43 10° SSE 00:29:50 49° ENE 00:35:01 10° N
SJ 16-02 2.2 00:28:58 10° SSW 00:33:13 49° WNW 00:36:59 13° N
Cosmos 1328 4.4 00:32:07 10° S 00:35:00 42° SSE 00:35:00 42° SSE
ISS -1.2 00:37:36 10° WNW 00:39:32 14° NW 00:40:19 14° NNW
Cosmos 2058 Rocket 3.9 00:39:03 10° NNW 00:43:24 51° W 00:47:46 10° SSW
IUS-9 SRM-1 2.9 00:42:32 10° W 00:44:01 40° SW 00:44:01 40° SW
Cosmos 1340 4.0 00:41:33 10° S 00:43:33 30° S 00:43:33 30° S
H-2A R/B 2.3 00:42:14 10° S 00:47:05 64° W 00:52:00 10° NNW
NOSS 2-1 (E) 3.7 00:43:50 10° SSW 00:46:50 52° SW 00:46:50 52° SW
Helios 1A Rocket 3.4 00:45:32 10° S 00:49:34 58° W 00:53:38 10° NNW
Cosmos 990 Rocket 3.9 00:44:21 10° SSW 00:49:34 83° WNW 00:51:10 46° N
GPS 2-14 Rocket1 3.9 00:49:02 10° WSW 00:52:29 35° SSW 00:52:29 35° SSW
ATLAS 3B R/B 4.0 00:49:32 10° NW 00:56:09 41° WSW 01:02:58 10° S
Hubble Space Telescope 1.8 00:57:34 10° W 01:00:30 44° W 01:00:30 44° W
Cosmos 1898 Rocket 3.8 01:03:58 10° SSW 01:09:11 62° WNW 01:09:43 59° NW
Cosmos 2098 Rocket 4.1 01:03:44 10° S 01:09:58 88° W 01:13:17 35° N
ARGOS 3.8 01:07:59 10° S 01:13:10 53° W 01:18:24 10° NNW
DELTA 2 R/B (1) 4.2 01:13:05 10° NW 01:17:03 48° NW 01:17:03 48° NW
Cosmos 2278 Rocket 4.3 01:45:43 10° SSW 01:47:12 19° SSW 01:47:12 19° SSW
ATLAS 3B CENTAUR R/B 4.3 08:36:32 45° E 08:36:32 45° E 08:46:33 10° E
Cosmos 2333 Rocket 4.5 09:10:00 18° ENE 09:10:00 18° ENE 09:12:00 10° NE
Cosmos 2219 Rocket 4.0 09:21:27 27° E 09:21:27 27° E 09:25:25 10° NE
CZ-3A R/B 3.8 09:29:30 71° WSW 09:31:11 80° S 09:40:25 10° E
COSMOS 2455 3.8 09:36:16 42° SE 09:36:16 42° SE 09:40:19 10° SE
ATLAS 2A CENTAUR R/B 3.9 09:37:03 38° E 09:37:03 38° E 09:43:15 10° E
Cosmos 1818 3.9 10:00:02 63° SE 10:00:02 63° SE 10:04:40 10° SSE
FALCON 9 R/B 2.0 10:02:08 86° NW 10:02:12 87° N 10:05:46 10° E
USA 267 4.0 10:01:03 10° SSE 10:05:50 37° SSW 10:05:50 37° SSW
Atlas Centaur 2 3.3 10:06:29 40° SW 10:09:29 62° SSE 10:17:55 10° ENE
SL-24 R/B - RUBIN 2 4.3 10:12:16 53° S 10:12:16 53° S 10:15:55 10° SSE
Cosmos 2233 Rocket 4.3 10:08:19 10° SSW 10:17:49 29° N 10:20:46 10° N
ASTRO E2 3.8 10:18:13 40° SE 10:18:13 40° SE 10:20:55 10° ESE
Cosmos 1726 3.8 10:16:29 10° SSE 10:19:48 33° E 10:23:09 10° NNE
Cosmos 44 4.4 10:20:39 25° N 10:23:28 47° ENE 10:28:35 10° SE
Aureole 2 Rocket 4.1 10:25:11 27° ESE 10:25:11 27° ESE 10:27:06 10° SE
Cosmos 468 Rocket 4.1 10:21:09 10° S 10:26:18 73° ESE 10:31:32 10° NNE
Chandra Rocket (1) 2.0 10:26:45 81° WNW 10:26:56 86° NNW 10:29:58 10° ENE
COSMO-SKYMED 1 3.9 10:24:42 10° SE 10:28:43 38° ENE 10:32:43 10° N
Fermi 4.2 10:29:29 51° S 10:29:29 51° S 10:33:15 10° ESE
OAO 2 Rocket 3.7 10:30:10 46° N 10:30:10 46° N 10:34:41 10° ENE
IRIDIUM 104 4.3 10:28:34 10° S 10:33:45 81° E 10:38:58 10° N
OAO 3 Rocket 3.5 10:36:36 45° NNW 10:37:26 51° NNE 10:41:58 10° E
Meteor 2-10 4.3 10:32:11 10° S 10:37:54 80° E 10:43:33 10° N
FALCON 9 DEB 3.2 10:40:06 71° SE 10:40:09 71° SE 10:43:32 10° NE
Cosmos 921 Rocket 3.0 10:36:21 10° S 10:40:40 80° ESE 10:44:56 10° NNE
CZ-2C R/B 1.7 10:40:05 38° SSW 10:41:19 56° SSE 10:45:11 10° ENE
Cosmos 1777 Rocket 4.0 10:40:30 44° NW 10:41:47 56° WSW 10:46:54 10° S
Cosmos 1461 3.0 10:37:34 10° SSW 10:42:02 88° WNW 10:46:46 10° NNE
IRIDIUM 114 4.2 10:37:40 10° S 10:42:52 80° W 10:48:06 10° N
Cosmos 1464 Rocket 4.1 10:40:47 10° S 10:46:52 77° E 10:53:00 10° N
Envisat 4.0 10:42:23 10° NNE 10:47:16 47° E 10:52:07 10° S
H-2A R/B 2.9 10:43:53 10° NNE 10:47:33 68° E 10:51:16 10° S
SJ 16-02 2.1 10:43:47 10° N 10:48:02 50° ENE 10:52:15 10° SSE
CZ-3 Stage 3 1.1 10:49:32 52° NW 10:50:00 59° NNW 10:52:14 10° ENE
Cosmos 1072 Rocket 4.4 10:44:12 10° S 10:50:19 89° WNW 10:56:33 10° N
Cosmos 1844 Rocket 2.5 10:47:01 20° NNW 10:50:56 77° WSW 10:56:28 10° SSE
Cosmos 2333 Rocket 2.9 10:52:11 30° NW 10:52:11 30° NW 10:56:31 10° N
IRIDIUM 103 4.2 10:46:53 10° S 10:52:01 63° W 10:57:11 10° N
ATLAS 3B CENTAUR R/B 4.3 10:45:58 26° W 10:52:44 60° SSW 11:12:41 10° SE
Cosmos 1953 3.4 10:51:01 10° SSE 10:54:50 46° E 10:58:39 10° NNE
Cosmos 2237 Rocket 2.7 10:49:26 10° S 10:54:59 62° ESE 11:00:34 10° NNE
NOSS 0 Rocket 3.9 10:51:46 10° SSW 10:57:58 87° WNW 11:04:11 10° NNE
Delta 198 3.8 10:59:55 30° WSW 11:01:05 39° SSW 11:04:27 10° ESE
Cosmos 2219 Rocket 3.0 11:03:25 25° W 11:04:30 27° WNW 11:09:10 10° N
Meteor 2-5 Rocket 4.1 11:00:24 14° NNW 11:04:44 40° W 11:10:02 10° SSW
H-2A R/B 3.8 11:02:13 10° SW 11:03:49 16° WSW 11:03:49 16° WSW
COSMOS 2428 3.4 11:05:56 10° SW 11:10:49 29° WNW 11:15:43 10° N
SAR-Lupe-1 4.3 11:11:28 10° SSE 11:15:01 72° ENE 11:18:35 10° N
SKYMED 2 3.8 11:12:28 10° S 11:16:39 48° W 11:20:51 10° NNW
Cosmos 1455 Rocket 3.3 11:12:56 10° SSW 11:17:06 43° W 11:21:15 10° N
H-II Stage 2 3.0 11:15:38 18° WSW 11:17:15 31° S 11:23:11 10° SE
COSMOS 2455 4.5 11:19:28 13° W 11:19:42 13° WSW 11:22:23 10° SW
Cosmos 540 Rocket 3.3 11:14:55 10° SSW 11:19:58 70° WNW 11:25:04 10° N
Aurora 2 Rocket 4.2 11:16:14 10° WSW 11:21:43 54° SSE 11:29:36 10° E
Cosmos 2034 Rocket 4.0 11:15:56 10° S 11:22:16 77° W 11:28:39 10° N
Lacrosse 4 Rocket 3.5 11:18:53 10° S 11:22:33 32° ESE 11:26:17 10° NE
Cosmos 1758 4.3 11:19:18 10° SW 11:22:38 25° W 11:26:00 10° NNW
Cosmos 990 Rocket 4.3 11:18:59 10° N 11:24:06 68° ENE 11:29:11 10° SSE
Cosmos 1908 3.4 11:21:04 10° S 11:24:50 75° E 11:28:37 10° N
CZ-4B R/B 2.7 11:23:13 10° SSW 11:25:47 21° W 11:27:07 17° WNW
CZ-4B R/B 4.0 11:24:17 10° NNW 11:26:54 19° WNW 11:29:34 10° WSW
Cosmos 1980 3.7 11:21:30 10° SSW 11:27:04 59° WNW 11:32:39 10° N
Okean O Rocket 2.9 11:28:18 10° NNE 11:32:28 45° E 11:36:37 10° S
CZ-3A R/B 3.5 11:24:11 12° W 11:35:03 60° SSW 11:41:14 10° ESE
Delta 142 3.7 11:31:27 10° W 11:35:49 87° N 11:41:22 10° E
NOSS 3-2 (A) 3.8 11:32:28 10° SSW 11:37:44 61° ESE 11:43:28 10° NE
GPS 2-04 Rocket1 4.0 11:34:18 11° NW 11:37:51 30° NNE 11:41:33 10° ENE
NOAA 12 4.3 11:34:21 10° NNE 11:39:38 81° ESE 11:44:56 10° S
GEOS 3 Rocket 3.7 11:35:00 10° SSE 11:40:14 67° WSW 11:45:35 10° NW
MOS 1 Rocket 3.9 11:35:39 10° S 11:40:39 44° W 11:45:27 10° NNW
ERS-2 3.1 11:37:38 10° SSW 11:40:46 27° W 11:43:56 10° NW
YAOGAN 6 3.4 11:37:57 10° NNW 11:41:13 30° WNW 11:44:29 10° SW
Delta 2 Rocket 4.3 11:36:04 11° WNW 11:41:25 64° SSW 11:46:51 10° SE
Cosmos 1570 Rocket 4.1 11:36:51 10° SSW 11:41:57 56° WNW 11:47:04 10° N
Cosmos 841 Rocket 3.8 11:37:39 10° SW 11:42:29 42° WNW 11:47:22 10° N
Cosmos 1898 Rocket 3.5 11:39:57 10° NNW 11:45:08 87° WSW 11:50:18 10° SSE
CZ-4B DEB 4.3 11:40:20 10° N 11:45:46 57° WNW 11:51:12 10° SSW
Nadezhda 4 Rocket 3.9 11:41:22 10° N 11:47:29 80° W 11:53:35 10° S
Meteor 1-16 Rocket 4.5 11:45:08 10° SSW 11:50:43 52° W 11:56:29 10° N
Cosmos 1939 Rocket 4.2 11:49:32 10° NNE 11:53:18 45° E 11:57:00 10° S
